Regional Weather Roundup
Issued by NWS Raleigh/Durham, NC

Home | Current Version | Previous Version | Text Only | Print | Product List | Glossary On
Versions: 1 2 3 4 5 6 7 8 9 10 11 12 13 14 15 16 17 18 19 20 21 22 23 24 25 26 27 28 29 30 31 32 33 34 35 36 37 38 39 40 41 42 43 44 45 46 47 48 49 50
000
ASUS42 KRAH 260310
RWRRAH
NORTH CAROLINA WEATHER ROUNDUP
NATIONAL WEATHER SERVICE RALEIGH NC
1100 PM EDT SAT APR 25 2015

NOTE: "FAIR" INDICATES FEW OR NO CLOUDS BELOW 12,000 FEET WITH NO
SIGNIFICANT WEATHER AND/OR OBSTRUCTIONS TO VISIBILITY.

NCZ001-053-055-056-065-067-260400-
WESTERN NORTH CAROLINA

CITY           SKY/WX    TMP DP  RH WIND       PRES   REMARKS
ASHEVILLE      CLEAR     57  55  93 CALM      29.63R
JEFFERSON      FOG       49  49 100 CALM      29.62F VSB 1/2
MORGANTON      CLOUDY    50  50 100 CALM      29.68S FOG
HICKORY        CLOUDY    50  48  93 E5        29.65R FOG
RUTHERFORDTON  CLOUDY    55  54  99 CALM      29.63F
MOUNT AIRY     CLOUDY    45  43  92 E6        29.68S
BOONE          CLEAR     47  47 100 CALM      29.64S FOG
$$

NCZ021-022-025-041-071-084-088-260400-
CENTRAL NORTH CAROLINA

CITY           SKY/WX    TMP DP  RH WIND       PRES   REMARKS
CHARLOTTE      FOG       53  51  93 N7        29.64R VSB 1
GREENSBORO     DRIZZLE   45  44  97 NE8       29.66S FOG
WINSTON-SALEM  CLOUDY    44  43  96 NE8       29.68S FOG
RALEIGH-DURHAM LGT RAIN  50  49  96 N6        29.66R VSB 1/2
FORT BRAGG     NOT AVBL
FAYETTEVILLE   CLOUDY    61  60  97 CALM      29.61R FOG
BURLINGTON     CLOUDY    47  45  93 N5        29.66F FOG
LAURINBURG     CLOUDY    62  60  93 CALM      29.62R FOG
$$

NCZ011-015-027-028-043-044-047-080-103-260400-
NORTHEASTERN NORTH CAROLINA

CITY           SKY/WX    TMP DP  RH WIND       PRES   REMARKS
ROCKY MT-WILSO CLOUDY    55  54  96 N3        29.64R FOG
GREENVILLE     CLOUDY    55  55 100 E5        29.65S FOG
WASHINGTON     LGT RAIN  54  53  97 NE7       29.62S
ELIZABETH CITY LGT RAIN  51  49  92 E13       29.63F
MANTEO         CLOUDY    53  52  97 E12       29.62F
CAPE HATTERAS  LGT RAIN  56  56 100 NE3       29.58F
$$

NCZ078-087-090-091-093-098-101-260400-
SOUTHEASTERN NORTH CAROLINA

CITY           SKY/WX    TMP DP  RH WIND       PRES   REMARKS
LUMBERTON      CLOUDY    63  61  93 CALM      29.60S FOG
GOLDSBORO      NOT AVBL
KINSTON        CLOUDY    57  56  97 NE3       29.61S
KENANSVILLE    CLOUDY    59  58  96 CALM      29.61F
NEW BERN       CLOUDY    60  57  89 NE6       29.61F
CHERRY POINT   CLOUDY    61  58  90 N6        29.60F
BEAUFORT       CLOUDY    63  62  97 CALM      29.58F
JACKSONVILLE   CLOUDY    62  61  96 W3        29.58F
WILMINGTON     CLOUDY    68  65  90 SW13      29.61R
$$



USA.gov is the U.S. government's official web portal to all federal, state and local government web resources and services.